Location: Smithsonian NASM Public Observatory
(38.8879°N, 77.0185°W)
Time: 07:58:54
(UTC-04:00)

Daily predictions for brighter satellites

Satellite Brightness Start Highest point End
(mag) Time Altitude Azimuth Time Altitude Azimuth Time Altitude Azimuth
Tiangong 1 2.1 20:08:44 10° W 20:11:44 42° N 20:14:42 10° ENE
Cosmos 2278 4.0 20:06:24 10° S 20:11:47 47° ESE 20:17:15 10° NE
Meteor 1-29 3.1 20:08:34 10° N 20:12:03 81° W 20:15:30 10° SSW
Meteor 2-4 Rocket 3.8 20:06:46 10° N 20:12:39 76° E 20:18:34 10° SSE
Helios 1B rocket 2.9 20:09:49 10° N 20:13:56 68° WNW 20:18:00 10° SSW
Cosmos 1821 Rocket 3.9 20:12:08 10° S 20:18:13 75° E 20:24:18 10° N
Cosmos 1975 4.2 20:15:14 10° SE 20:18:21 21° E 20:21:29 10° NE
HJ-1C 4.2 20:17:56 10° S 20:21:09 53° W 20:24:23 10° NNW
Cosmos 1605 Rocket 4.3 20:15:20 10° SSE 20:21:18 45° E 20:27:13 10° NNE
METEOR-M 4.4 20:16:32 10° S 20:21:51 73° WSW 20:27:13 10° NNW
Okean 2 3.4 20:19:33 10° N 20:23:42 62° E 20:27:48 10° SSE
Cosmos 2369 3.8 20:19:58 10° S 20:25:28 55° ESE 20:31:02 10° NNE
Cosmos 1633 3.9 20:22:37 10° SSW 20:26:07 44° W 20:29:38 10° N
Lacrosse 5 rocket 2.2 20:23:32 10° NNW 20:26:51 29° NE 20:29:46 12° E
Cosmos 1777 Rocket 4.1 20:21:40 10° NNW 20:26:57 86° WSW 20:32:13 10° SSE
NOSS 7 (D) 4.3 20:23:27 10° SSW 20:26:59 77° ESE 20:30:20 10° NE
H-2A R/B 3.1 20:23:49 10° SSE 20:27:33 47° ENE 20:31:20 10° N
Cosmos 1315 Rocket 4.5 20:23:51 10° SSW 20:27:37 40° WNW 20:31:28 10° N
Cosmos 1980 Rocket 3.8 20:27:27 10° SE 20:30:05 13° E 20:32:44 10° ENE
Helios 1A 4.2 20:29:40 10° S 20:33:39 45° W 20:37:41 10° NNW
Meteor 1-23 Rocket 4.5 20:29:25 10° NNW 20:35:04 75° W 20:40:45 10° S
NOSS 3-4 (A) 3.9 20:30:15 10° NNW 20:37:20 84° ENE 20:44:50 10° SE
NOSS 3-4 (C) 3.9 20:30:22 10° NNW 20:37:28 83° ENE 20:44:57 10° SE
CZ-4 DEB 4.2 20:38:27 16° ESE 20:39:51 21° ENE 20:42:19 10° NNE
Cosmos 2208 Rocket 4.2 20:39:05 10° SSW 20:44:23 80° WNW 20:49:49 10° NNE
CZ-2D R/B 3.3 20:42:16 10° SSE 20:46:08 88° W 20:50:02 10° NNW
H-2A R/B 3.7 20:46:30 14° E 20:47:42 16° ENE 20:50:12 10° NNE
Cosmos 1461 2.7 20:45:17 10° NNW 20:49:21 77° ENE 20:52:18 17° SE
OAO 2 Rocket 3.7 20:45:48 10° WSW 20:50:37 49° S 20:54:03 19° ESE
Hubble Space Telescope 3.1 20:49:43 10° SW 20:51:32 13° SSW 20:53:20 10° S
Meteor 2-15 Rocket 4.4 20:45:36 10° N 20:51:42 88° W 20:57:46 10° S
Cosmos 1892 Rocket 4.5 20:47:21 10° NNW 20:51:43 52° W 20:56:03 10° S
Cosmos 2123 Rocket 4.0 20:45:42 10° N 20:51:54 88° ENE 20:58:05 10° S
Cosmos 1626 Rocket 3.7 20:47:50 10° N 20:52:08 51° E 20:55:45 14° SSE
Cosmos 1939 Rocket 4.0 20:50:49 19° ESE 20:52:43 28° ENE 20:56:17 10° NNE
FENGYUN 3A 3.8 20:49:34 10° S 20:54:55 74° WSW 21:00:17 10° NNW
Cosmos 1455 Rocket 3.5 20:50:53 10° SSW 20:55:09 63° W 20:59:29 10° N
Cosmos 2227 Rocket 2.2 20:53:26 10° NNW 20:59:08 89° WSW 21:04:23 12° SSE
Cosmos 1656 3.7 20:54:03 10° S 20:59:34 60° ESE 21:05:03 10° NNE
Envisat 3.7 20:57:13 20° ESE 21:00:02 35° ENE 21:04:38 10° N
Cosmos 1602 Rocket 3.5 20:56:34 10° N 21:01:00 65° E 21:04:39 15° SSE
Cosmos 1459 Rocket 4.4 20:59:08 12° SSE 21:04:11 38° E 21:09:45 10° NNE
Cosmos 1937 Rocket 4.4 20:59:34 10° N 21:04:14 31° ENE 21:06:21 23° ESE
Cosmos 1346 Rocket 3.7 21:00:43 10° NNW 21:04:32 49° W 21:08:22 10° S
Cosmos 1500 3.4 21:02:27 18° SSE 21:04:57 45° E 21:08:34 10° NNE
ALOS 3.3 21:05:27 10° S 21:09:55 45° W 21:14:24 10° NNW
Iridium 4 Rocket 3.2 21:05:16 10° N 21:10:21 72° E 21:14:17 14° S
Cosmos 2082 3.9 21:07:45 10° NNW 21:13:21 73° WSW 21:18:05 15° SSE
Cosmos 2084 4.0 21:09:36 10° NNW 21:13:30 42° NE 21:14:48 32° E
Cosmos 2297 Rocket 2.1 21:08:55 10° NNW 21:14:37 87° ENE 21:18:31 21° SSE
Cosmos 220 Rocket 3.8 21:14:32 10° NNW 21:18:46 89° ENE 21:20:50 30° SSE
Cosmos 1340 4.1 21:15:53 10° NNE 21:18:25 22° ENE 21:18:25 22° ENE
Resurs 01 Rocket 4.5 21:16:46 10° SW 21:19:20 15° W 21:21:55 10° WNW
Cosmos 2150 Rocket 4.1 21:14:17 10° N 21:19:21 55° ENE 21:21:30 32° SE
Cosmos 1153 Rocket 4.4 21:13:12 10° S 21:19:25 90° W 21:25:36 10° N
RESURS DK-1 3.3 21:17:08 10° N 21:20:52 31° ENE 21:21:23 30° ENE
CZ-3C R/B 4.1 20:40:41 10° W 21:22:04 34° SSW 21:28:19 18° SSE
USA 186 3.8 21:22:07 10° SSW 21:24:56 26° W 21:27:35 10° NW
YAOGAN 6 4.2 21:26:58 22° NE 21:26:58 22° NE 21:29:12 10° NNE
BREEZE-M DEB (TANK) 4.0 21:11:06 10° WSW 21:28:45 86° SSE 21:32:42 17° ENE
DELTA 2 R/B (1) 3.5 21:23:18 10° W 21:28:52 77° SSW 21:31:02 38° ESE
Cosmos 1515 3.7 21:25:24 10° N 21:29:15 78° W 21:30:47 35° S
ERS-1 Rocket 2.9 21:27:56 25° SSE 21:30:58 88° WSW 21:36:01 10° NNW
Cosmos 1606 Rocket 4.0 21:34:01 40° ENE 21:34:01 40° ENE 21:37:49 10° NNE
Cosmos 1802 Rocket 4.1 21:29:34 21° SSE 21:33:52 59° E 21:40:11 10° NNE
Cosmos 1743 2.6 21:40:01 69° E 21:40:01 69° E 21:43:53 10° NNE
Cosmos 1898 Rocket 3.4 21:36:08 10° NNW 21:41:28 87° WSW 21:43:27 40° SSE
OTV 4 2.5 21:39:36 10° W 21:41:08 21° WSW 21:41:08 21° WSW
Cosmos 1763 Rocket 3.5 21:43:23 50° ESE 21:43:27 50° ESE 21:48:22 10° NNE
Lacrosse 5 2.0 21:42:17 10° NW 21:47:17 58° NE 21:48:07 50° E
Cosmos 1066 Rocket 4.3 21:42:03 10° NNW 21:47:44 76° W 21:50:49 29° S
Tiangong 1 2.4 21:45:33 10° WNW 21:47:55 37° NNW 21:47:55 37° NNW
Cosmos 2016 Rocket 3.9 21:47:11 37° SSE 21:49:34 65° E 21:55:41 10° NNE
Cosmos 1697 Rocket 2.9 21:45:08 10° SSW 21:50:45 70° WNW 21:56:25 10° NNE
SPOT 5 2.9 21:50:56 59° SE 21:51:44 70° ENE 21:56:35 10° N
SL-16 R/B 4.1 22:00:59 15° NE 22:00:59 15° NE 22:02:06 10° NE
Cosmos 1726 Rocket 3.9 21:58:23 51° NE 21:58:23 51° NE 22:01:51 10° NNE
Cosmos 2173 Rocket 4.2 21:56:18 12° SSW 22:02:12 73° W 22:08:33 10° N
USA 215 4.2 22:00:24 26° ENE 22:03:03 36° NNE 22:08:52 10° NNW
Cosmos 841 Rocket 3.4 22:05:13 70° E 22:05:13 70° E 22:10:12 10° NNE
Lacrosse 5 rocket 2.9 22:02:54 10° WNW 22:05:31 25° WSW 22:05:31 25° WSW
ARGOS 3.3 22:12:12 57° ENE 22:12:12 57° ENE 22:17:15 10° N
Cosmos 1825 Rocket 3.9 22:08:07 10° NNW 22:12:29 61° W 22:12:29 61° W
Cosmos 1980 Rocket 2.3 22:07:40 10° SSW 22:13:19 75° WNW 22:19:02 10° NNE
Cosmos 1864 Rocket 4.3 22:17:11 70° ESE 22:17:24 70° E 22:23:30 10° NNE
Cosmos 967 Rocket 4.3 22:13:03 10° NNW 22:19:25 76° ENE 22:19:56 71° ESE
USA 245 4.3 22:21:02 72° SSE 22:21:42 85° ENE 22:28:06 10° N
Cosmos 1953 Rocket 4.1 22:17:41 10° NNW 22:21:30 58° NW 22:21:30 58° NW
Tsikada Rocket 3.9 22:16:48 10° N 22:23:14 70° E 22:23:28 70° E
H-2A R/B 3.1 22:23:39 38° W 22:23:39 38° W 22:27:16 10° NNW
Meteor 1-15 Rocket 4.2 22:24:50 73° ENE 22:24:50 73° ENE 22:30:22 10° NNE
Terra 3.5 22:28:05 23° NNE 22:28:05 23° NNE 22:30:24 10° N
MetOp-B 4.4 22:28:30 60° WSW 22:28:51 62° W 22:34:10 10° NNW
Milstar 3 Cent rocket 4.1 22:14:25 10° W 22:31:57 47° SSW 22:34:14 42° S
ASTEX 1 4.3 22:34:05 10° N 22:38:51 46° W 22:39:19 44° W
Cosmos 2263 Rocket 3.5 22:38:07 10° N 22:41:51 29° NNE 22:41:51 29° NNE
Cosmos 2322 Rocket 3.4 22:48:05 32° NNE 22:48:05 32° NNE 22:51:01 10° NNE
H-2A R/B 3.1 22:48:51 37° N 22:48:51 37° N 22:51:53 10° N
Cosmos 1725 Rocket 4.2 22:47:52 61° WSW 22:48:29 64° W 22:54:42 10° N
Cosmos 2233 Rocket 4.5 23:15:54 56° NW 23:15:54 56° NW 23:21:05 10° N
Lacrosse 5 4.3 23:26:03 10° WNW 23:27:19 15° W 23:27:19 15° W
SL-16 R/B 3.7 23:42:47 33° NNW 23:42:47 33° NNW 23:46:34 10° N
USA 215 4.0 23:47:44 47° WNW 23:47:44 47° WNW 23:52:15 10° NW
